Content
SEND FEEDBACK

Daily
Averages
Monthly
Summary
United States of America

SWANNANOA - BEETREE RESERVOIR, NORTH CAROLINA


Home > North America > United States > North Carolina
Elevation: 254 feet     Latitude: 35 38N     Longitude: 082 24W

WEATHER
 
SELECT A DAY
Number of Records: 225,663;   Date Range: 1/1/95 - 7/23/14
 
SHARE

PRINT THIS DATA

[ ← Previous Day ]
WEATHER ALMANAC - MAY 10, 2013
[ Next Day → ]
[ °C ]   °F
Weather ElementAverageHighLow
Temperature58.1 °F77 °F (12:54 pm)50 °F (6:35 am)
Dewpoint53.2 °F57 °F (10:54 am)50 °F (5:54 am)
Humidity86.4 %100 % (1:54 am)47 % (12:54 pm)
Barometer30.07 in30.14 in (1:54 am)29.96 in (11:54 pm)
Wind Speed3.2 mph17.3 mph (1:54 pm)
Wind Gust26.5 mph (11:54 am)
Weather ElementAverage
Visibility4.7 mi
Wind DirectionENE (56.1 °)

Weather ElementTotal
Precipitation---
Heating Degree Days1.5 (Base 65)
Growing Degree Days13.5 (Base 50)
Averaged from 44 records on May 10, 2013
WEATHER CONDITIONS BREAKOUT
WIND DIRECTION BREAKOUT
WEATHER BY HOUR - MAY 10, 2013
[ °C ]   °F
Local TimeTemperatureDewpointHumidityBarometerVisibilityWind DirectionWind SpeedGust SpeedPrecipitationEventsConditions
1:54 AM55.4 °F55.4 °F100 %30.14 in9.0 miCalmClear
2:54 AM54.0 °F53.1 °F97 %30.08 in5.0 miSW (230°)3.5 mphClear
3:54 AM54.0 °F52.0 °F93 %30.09 in7.0 miCalmClear
4:32 AM51.8 °F51.8 °F100 %30.12 in1.2 miCalmPartly Cloudy
4:34 AM51.8 °F51.8 °F100 %30.11 in0.8 miCalmMist
4:39 AM51.8 °F51.8 °F100 %30.11 in0.2 miCalmFogFog
4:50 AM51.8 °F51.8 °F100 %30.11 in0.5 miCalmFogFog
4:54 AM52.0 °F52.0 °F100 %30.06 in0.5 miCalmFogFog
5:01 AM51.8 °F51.8 °F100 %30.10 in1.5 miCalmMostly Cloudy
5:05 AM51.8 °F51.8 °F100 %30.10 in3.0 miCalmMostly Cloudy
5:14 AM51.8 °F51.8 °F100 %30.10 in1.2 miCalmMostly Cloudy
5:21 AM51.8 °F51.8 °F100 %30.11 in0.2 miCalmFogFog
5:39 AM51.8 °F51.8 °F100 %30.11 in0.5 miCalmFogFog
5:54 AM51.1 °F50.0 °F96 %30.06 in0.5 miCalmFogFog
6:06 AM51.8 °F50.0 °F94 %30.11 in0.2 miCalmFogFog
6:12 AM51.8 °F51.8 °F100 %30.11 in0.5 miCalmFogFog
6:18 AM51.8 °F50.0 °F94 %30.11 in1.5 miCalmMostly Cloudy
6:26 AM51.8 °F50.0 °F94 %30.11 in2.5 miCalmMostly Cloudy
6:35 AM50.0 °F50.0 °F100 %30.11 in1.5 miCalmMostly Cloudy
6:38 AM50.0 °F50.0 °F100 %30.11 in0.8 miCalmMostly Cloudy
6:50 AM50.0 °F50.0 °F100 %30.12 in0.2 miCalmFogFog
6:54 AM50.0 °F50.0 °F100 %30.08 in0.2 miCalmFogFog
7:06 AM51.8 °F51.8 °F100 %30.12 in0.2 miCalmFogFog
7:37 AM51.8 °F51.8 °F100 %30.11 in0.2 miCalmFogFog
7:54 AM51.8 °F51.8 °F100 %30.12 in0.2 miCalmFogFog
8:35 AM53.6 °F53.6 °F100 %30.12 in1.0 miCalmMist
8:38 AM53.6 °F53.6 °F100 %30.12 in2.0 miCalmMostly Cloudy
8:44 AM53.6 °F53.6 °F100 %30.12 in7.0 miCalmScattered Clouds
8:54 AM55.4 °F53.6 °F94 %30.12 in9.0 miCalmPartly Cloudy
9:54 AM61.0 °F55.0 °F81 %30.06 in10.0 miSE (140°)4.6 mphClear
10:54 AM70.0 °F57.0 °F63 %30.04 in10.0 miSSE (160°)8.1 mphClear
11:54 AM73.9 °F55.9 °F53 %30.04 in10.0 miSSW (200°)15.0 mph26.5 mphClear
12:54 PM77.0 °F55.4 °F47 %30.09 in10.0 miSSW (210°)13.8 mph21.9 mphClear
1:54 PM75.9 °F55.9 °F50 %30.01 in10.0 miSouth (190°)17.3 mph23.0 mphClear
2:54 PM73.0 °F55.9 °F55 %30.01 in10.0 miSouth (180°)17.3 mph21.9 mphScattered Clouds
3:54 PM73.0 °F57.0 °F57 %29.99 in10.0 miSSW (200°)13.8 mph18.4 mphClear
4:54 PM72.0 °F55.9 °F57 %29.98 in10.0 miSSW (200°)9.2 mph21.9 mphClear
5:54 PM70.0 °F57.0 °F63 %29.99 in10.0 miSSW (210°)10.4 mph17.3 mphClear
6:54 PM69.1 °F55.0 °F61 %29.98 in10.0 miSouth (190°)11.5 mphClear
7:54 PM68.0 °F55.0 °F63 %29.97 in10.0 miSouth (180°)9.2 mphMostly Cloudy
8:54 PM66.9 °F55.9 °F68 %29.99 in10.0 miSouth (180°)6.9 mphScattered Clouds
9:54 PM66.0 °F55.9 °F70 %29.98 in10.0 miCalmOvercast
10:54 PM64.9 °F55.9 °F73 %29.97 in10.0 miCalmOvercast
11:54 PM64.0 °F57.0 °F78 %29.96 in10.0 miCalmOvercast
Hourly data recorded from KAVL, located miles away from Swannanoa - Beetree Reservoir, North Carolina







STORIES FROM OUR PARTNERS